This is the latest recevied weather packets stored in our database for station/object OH7GGX-14. If no packets are shown the sender has not sent any weather packets the latest 10 day(s).
| Time | Temp. | Humidity | Pressure | Rain* | Wind** | Luminosity | Snow |
|---|---|---|---|---|---|---|---|
| 1777686702 | 0° C | 99% | 1012.9 hPa | 0 mm | - | - | - |
| 1777686101 | 0° C | 99% | 1013 hPa | 0 mm | - | - | - |
| 1777685502 | 0° C | 99% | 1013.1 hPa | 0 mm | - | - | - |
| 1777684902 | 0° C | 99% | 1013.1 hPa | 0 mm | - | - | - |
| 1777684302 | 0° C | 99% | 1013.2 hPa | 0 mm | - | - | - |
| 1777683702 | 0° C | 99% | 1013.1 hPa | 0 mm | - | - | - |
| 1777683102 | 0.56° C | 99% | 1013 hPa | 0 mm | - | - | - |
| 1777682502 | 0.56° C | 99% | 1013.1 hPa | 0 mm | - | - | - |
| 1777681902 | 0.56° C | 99% | 1013.3 hPa | 0 mm | - | - | - |
| 1777681302 | 0.56° C | 99% | 1013.2 hPa | 0 mm | - | - | - |
| 1777680702 | 0.56° C | 99% | 1013.3 hPa | 0 mm | - | - | - |
| 1777680102 | 1.11° C | 99% | 1013.3 hPa | 0 mm | - | - | - |
| 1777679502 | 1.11° C | 99% | 1013.3 hPa | 0 mm | - | - | - |
| 1777678902 | 1.11° C | 99% | 1013.3 hPa | 0 mm | - | - | - |
| 1777678302 | 1.67° C | 99% | 1013.4 hPa | 0 mm | - | - | - |
| 1777677702 | 1.67° C | 99% | 1013.4 hPa | 0 mm | - | - | - |
| 1777677102 | 1.67° C | 99% | 1013.6 hPa | 0 mm | - | - | - |
| 1777676502 | 1.67° C | 99% | 1013.5 hPa | 0 mm | - | - | - |
| 1777675902 | 1.67° C | 99% | 1013.4 hPa | 0 mm | - | - | - |
| 1777675302 | 2.22° C | 96% | 1013.5 hPa | 0 mm | - | - | - |
| 1777674702 | 2.22° C | 95% | 1013.5 hPa | 0 mm | - | - | - |
| 1777674103 | 2.78° C | 94% | 1013.5 hPa | 0 mm | - | - | - |
| 1777673502 | 2.78° C | 93% | 1013.6 hPa | 0 mm | - | - | - |
| 1777672902 | 2.78° C | 92% | 1013.7 hPa | 0 mm | - | - | - |
| 1777672302 | 3.33° C | 90% | 1013.7 hPa | 0 mm | - | - | - |
* Rain latest hour (hover to see other rain measurements)
** Current wind speed in m/s (hover to see current wind gust speed)